EW4346 Weather Reports


Display with metric or nautical units.
time (UTC)temp
F
wind
direction
speed
MPH
gust
MPH
rain 1hr
in
rain 24hr
in
rain mn
in
humidity
%
barometer
mb
20260504172239 56 256 3.0 9.0 0.00 0.00 0.00 60 1005.3
20260504171733 56 123 4.0 15.0 0.00 0.00 0.00 59 1005.3
20260504171227 56 355 4.0 15.0 0.00 0.00 0.00 58 1005.0
20260504170727 56 214 3.0 12.0 0.00 0.00 0.00 58 1005.0
20260504170445 57 221 3.0 9.0 0.00 0.00 0.00 57 1004.9
20260504150706 58 51 4.0 13.0 0.00 0.00 0.00 54 1004.7
20260504150209 58 97 3.0 13.0 0.00 0.00 0.00 55 1004.8
20260504141142 55 126 4.0 11.0 0.00 0.00 0.00 58 1005.4
20260504140640 55 205 3.0 9.0 0.00 0.00 0.00 58 1005.5
20260504140140 55 281 3.0 12.0 0.00 0.00 0.00 59 1005.5
20260504130625 48 158 3.0 12.0 0.00 0.00 0.00 74 1006.1
20260504130126 48 141 3.0 12.0 0.00 0.00 0.00 75 1006.2
20260504110446 40 92 0.0 0.0 0.00 0.00 0.00 84 1006.6
20260504100310 39 92 0.0 0.0 0.00 0.00 0.00 83 1006.6
20260504090134 39 92 0.0 0.0 0.00 0.00 0.00 80 1006.2
20260504081014 40 58 0.0 4.0 0.00 0.00 0.00 77 1006.6
20260504080731 40 211 0.0 2.0 0.00 0.00 0.00 78 1006.8
20260504070331 41 317 1.0 8.0 0.00 0.00 0.00 68 1006.6
20260504050311 36 12 1.0 5.0 0.00 0.00 0.00 68 1006.4
20260504045811 36 210 0.0 3.0 0.00 0.00 0.00 68 1006.5
20260504045311 36 207 0.0 0.0 0.00 0.00 0.00 70 1006.5
20260504045033 36 207 0.0 2.0 0.00 0.01 0.00 69 1006.6
20260504044312 35 207 0.0 2.0 0.00 0.01 0.00 69 1006.6
20260504043812 35 206 0.0 2.0 0.00 0.01 0.00 70 1006.6
20260504043306 36 206 0.0 2.0 0.00 0.01 0.00 67 1006.7
20260504042800 36 206 0.0 2.0 0.00 0.01 0.00 67 1006.6
20260504042526 36 206 0.0 0.0 0.00 0.01 0.00 69 1006.7
20260504041755 36 206 0.0 1.0 0.00 0.01 0.00 69 1006.7
20260504041251 36 206 0.0 2.0 0.00 0.01 0.00 67 1006.6
20260504034752 38 206 0.0 2.0 0.00 0.01 0.01 66 1006.4
20260504034252 38 206 0.0 2.0 0.00 0.01 0.01 65 1006.4
20260504033749 37 207 0.0 0.0 0.00 0.01 0.01 67 1006.4
20260504033247 37 207 0.0 0.0 0.00 0.01 0.01 67 1006.3
20260504032747 37 206 0.0 0.0 0.00 0.01 0.01 68 1006.4
20260504032248 37 206 0.0 3.0 0.00 0.01 0.01 69 1006.4
20260504031744 37 201 0.0 3.0 0.00 0.01 0.01 68 1006.4
20260504031243 37 201 0.0 1.0 0.00 0.01 0.01 69 1006.4
20260504030743 37 201 0.0 0.0 0.00 0.01 0.01 70 1006.5
20260504030513 37 201 0.0 0.0 0.00 0.01 0.01 70 1006.4
20260504030013 37 201 0.0 0.0 0.00 0.01 0.01 70 1006.4
20260504025243 37 201 0.0 2.0 0.00 0.01 0.01 69 1006.4
20260504024742 37 201 0.0 2.0 0.00 0.01 0.01 70 1006.4
20260504024244 37 274 0.0 0.0 0.00 0.02 0.01 69 1006.4
20260504024012 37 274 0.0 2.0 0.00 0.02 0.01 70 1006.5
20260504023238 37 274 0.0 2.0 0.00 0.02 0.01 70 1006.5
20260504022740 37 274 0.0 0.0 0.00 0.03 0.01 72 1006.6
20260504022508 37 274 0.0 0.0 0.00 0.03 0.01 70 1006.6
20260504021740 37 274 0.0 0.0 0.00 0.04 0.01 68 1006.6
20260504021240 38 274 0.0 2.0 0.00 0.04 0.01 68 1006.6
20260504021003 38 274 0.0 2.0 0.00 0.04 0.01 70 1006.6
20260504020240 38 275 0.0 1.0 0.00 0.04 0.01 68 1006.6
20260504015734 37 275 0.0 1.0 0.00 0.04 0.01 68 1006.6
20260504015228 38 275 0.0 1.0 0.00 0.05 0.01 72 1006.6
20260504014715 38 275 0.0 1.0 0.00 0.05 0.01 68 1006.6
20260504014209 38 275 0.0 1.0 0.00 0.05 0.01 70 1006.6
20260504014139 37 275 0.0 3.0 0.00 0.05 0.01 69 1006.5
20260504013152 37 275 0.0 3.0 0.00 0.06 0.01 72 1006.5
20260504013134 37 245 0.0 3.0 0.00 0.06 0.01 70 1006.5
20260504012141 37 273 0.0 0.0 0.00 0.07 0.01 71 1006.4
20260504011853 37 273 0.0 2.0 0.00 0.07 0.01 70 1006.5
20260504011121 37 273 0.0 2.0 0.00 0.08 0.01 70 1006.4
20260504010615 37 273 0.0 2.0 0.00 0.09 0.01 72 1006.4
20260504010105 37 273 0.0 6.0 0.00 0.12 0.01 72 1006.3
20260504005559 37 207 0.0 6.0 0.00 0.17 0.01 71 1006.2
20260504005057 37 5 0.0 3.0 0.00 0.17 0.01 72 1006.2
20260504004544 37 240 0.0 1.0 0.00 0.17 0.01 73 1006.2
20260504004527 37 240 0.0 1.0 0.00 0.17 0.01 73 1006.1
20260504003527 37 240 0.0 1.0 0.00 0.17 0.01 73 1006.1
20260504003016 37 240 0.0 1.0 0.00 0.17 0.01 73 1006.0
20260504002732 37 240 0.0 1.0 0.00 0.17 0.01 74 1006.0
20260504002004 38 240 0.0 0.0 0.00 0.17 0.01 71 1006.0
20260504001450 38 240 0.0 0.0 0.00 0.17 0.01 71 1005.9
20260504000944 39 240 0.0 0.0 0.00 0.17 0.01 71 1005.9
20260504000439 39 240 0.0 2.0 0.00 0.17 0.01 70 1005.8
20260503235928 39 240 0.0 2.0 0.00 0.17 0.01 69 1005.7
20260503235422 39 244 0.0 3.0 0.00 0.17 0.01 67 1005.7
20260503234917 40 244 0.0 3.0 0.00 0.17 0.01 69 1005.6
20260503234403 40 248 0.0 3.0 0.00 0.17 0.01 67 1005.6
20260503233856 40 248 0.0 3.0 0.00 0.17 0.01 67 1005.6
20260503233351 41 260 0.0 1.0 0.00 0.17 0.01 66 1005.6
20260503232840 41 260 0.0 7.0 0.00 0.17 0.01 64 1005.5
20260503232334 41 258 1.0 7.0 0.00 0.17 0.01 64 1005.5
20260503231828 41 202 1.0 3.0 0.00 0.17 0.01 63 1005.5
20260503231314 41 319 1.0 5.0 0.00 0.17 0.01 63 1005.5
20260503231036 41 54 1.0 12.0 0.00 0.17 0.01 64 1005.5
20260503230302 41 221 1.0 12.0 0.00 0.18 0.01 63 1005.5
20260503225753 42 260 0.0 4.0 0.00 0.18 0.01 63 1005.5
20260503225247 42 254 1.0 7.0 0.00 0.18 0.01 61 1005.4
20260503224740 42 320 2.0 16.0 0.00 0.18 0.01 62 1005.4
20260503224237 42 330 2.0 16.0 0.00 0.18 0.01 62 1005.4
20260503223737 43 236 2.0 7.0 0.00 0.18 0.01 60 1005.5
20260503223236 43 36 1.0 8.0 0.00 0.18 0.01 61 1005.4
20260503222736 43 246 1.0 8.0 0.00 0.18 0.01 60 1005.1
20260503222234 43 307 2.0 8.0 0.00 0.18 0.01 61 1005.1
20260503221734 43 286 2.0 8.0 0.00 0.18 0.01 62 1005.1
20260503221235 43 226 2.0 8.0 0.00 0.18 0.01 61 1005.0
20260503220735 43 266 3.0 9.0 0.00 0.18 0.01 61 1005.1
20260503220234 43 355 2.0 10.0 0.00 0.18 0.01 60 1005.0
20260503215730 43 12 2.0 10.0 0.00 0.18 0.01 59 1005.0
20260503215449 43 26 2.0 8.0 0.00 0.18 0.01 59 1005.0
20260503214731 43 15 2.0 8.0 0.00 0.18 0.01 60 1004.9
20260503214231 44 5 2.0 8.0 0.00 0.18 0.01 59 1004.9
20260503213725 44 17 2.0 8.0 0.00 0.19 0.01 59 1004.9
20260503213219 44 292 2.0 9.0 0.00 0.19 0.01 60 1005.0
20260503212716 44 283 2.0 9.0 0.00 0.19 0.01 57 1005.0
20260503212217 44 170 1.0 9.0 0.00 0.19 0.01 58 1004.9
20260503211717 44 282 2.0 9.0 0.00 0.19 0.01 60 1004.9
20260503211215 44 62 2.0 6.0 0.00 0.19 0.01 59 1004.9
20260503210714 44 254 1.0 6.0 0.00 0.19 0.01 59 1004.9
20260503210214 44 323 1.0 5.0 0.00 0.21 0.01 60 1005.0
20260503205715 44 338 2.0 6.0 0.00 0.23 0.01 60 1004.8
20260503205213 44 320 2.0 12.0 0.00 0.24 0.01 61 1004.8
20260503204715 44 126 2.0 12.0 0.00 0.24 0.01 60 1004.6
20260503204444 43 18 3.0 12.0 0.00 0.24 0.01 61 1004.8
20260503203714 43 32 3.0 12.0 0.00 0.25 0.01 60 1004.7
20260503203214 43 299 3.0 11.0 0.00 0.25 0.01 60 1004.8
20260503202715 43 188 2.0 7.0 0.00 0.26 0.01 59 1004.7
20260503202213 44 34 2.0 9.0 0.00 0.26 0.01 58 1004.7
20260503201919 43 325 3.0 18.0 0.00 0.26 0.01 64 1004.7
20260503201804 44 66 1.0 9.0 0.00 0.26 0.01 59 1004.7
20260503201159 43 355 4.0 18.0 0.00 0.26 0.01 60 1004.7
20260503200214 43 16 4.0 17.0 0.00 0.26 0.01 61 1004.7
20260503195715 43 259 5.0 17.0 0.00 0.26 0.01 60 1004.6
20260503195215 44 355 4.0 12.0 0.00 0.26 0.01 59 1004.6
20260503194715 44 298 2.0 8.0 0.00 0.26 0.01 60 1004.7
20260503194215 44 265 2.0 13.0 0.00 0.26 0.01 59 1004.7
20260503193714 45 294 3.0 13.0 0.00 0.26 0.01 58 1004.6
20260503193215 45 265 4.0 11.0 0.00 0.26 0.01 56 1004.8
20260503192717 45 42 5.0 17.0 0.00 0.26 0.01 55 1004.6
20260503192215 45 319 6.0 20.0 0.00 0.26 0.01 57 1004.5
20260503191932 45 31 4.0 20.0 0.00 0.26 0.01 56 1004.5
20260503191209 46 355 5.0 19.0 0.00 0.26 0.01 56 1004.7
20260503190659 46 346 5.0 19.0 0.00 0.26 0.01 58 1004.6
20260503190153 47 50 4.0 11.0 0.00 0.26 0.01 57 1004.6
20260503185648 46 5 4.0 11.0 0.00 0.26 0.01 58 1004.5
20260503185133 47 288 4.0 11.0 0.00 0.26 0.01 60 1004.5
20260503184627 47 36 3.0 11.0 0.00 0.26 0.01 60 1004.6
20260503184121 46 259 4.0 13.0 0.00 0.26 0.01 59 1004.4
20260503183612 46 322 5.0 15.0 0.00 0.26 0.01 56 1004.4
20260503183554 47 10 5.0 15.0 0.00 0.26 0.01 58 1004.6
20260503183035 47 315 6.0 21.0 0.00 0.26 0.01 58 1004.6
20260503182045 47 290 5.0 21.0 0.00 0.26 0.01 56 1004.7
20260503181540 48 213 4.0 16.0 0.00 0.26 0.01 56 1004.6
20260503181033 48 0 5.0 16.0 0.00 0.26 0.01 57 1004.5
20260503180523 47 317 5.0 16.0 0.00 0.26 0.01 56 1004.6
20260503180017 47 11 5.0 15.0 0.00 0.26 0.01 58 1004.5
20260503175958 47 186 3.0 15.0 0.00 0.26 0.01 56 1004.5
20260503174957 47 13 2.0 8.0 0.00 0.26 0.01 60 1004.5
20260503174707 46 45 3.0 12.0 0.00 0.26 0.01 65 1004.6
20260503173945 45 316 3.0 12.0 0.00 0.26 0.01 65 1004.6
20260503173435 44 342 5.0 20.0 0.00 0.26 0.01 64 1004.7
20260503172929 44 103 4.0 20.0 0.00 0.26 0.01 62 1004.6